Location: Caserío La Majadilla
(40.3767°N, 4.7613°W)
Time: 07:18:48
(UTC+00:00)

Daily predictions for brighter satellites

Satellite Brightness Start Highest point End
(mag) Time Altitude Azimuth Time Altitude Azimuth Time Altitude Azimuth
CZ-4B DEB 4.4 18:58:31 10° SSE 19:04:04 80° WSW 19:09:39 10° NNW
In-Cosmos 22 4.4 18:59:08 10° N 19:04:52 86° W 19:10:38 10° S
Cosmos 1459 Rocket 3.9 19:02:42 10° N 19:08:47 76° E 19:14:53 10° SSE
Cosmos 1626 2.6 19:05:44 10° NNW 19:09:16 63° W 19:12:45 10° S
Cosmos 1703 Rocket 3.5 19:05:07 10° N 19:09:34 83° E 19:13:57 10° S
Cosmos 1850 Rocket 4.5 19:04:31 10° N 19:09:36 43° ENE 19:14:39 10° SE
Cosmos 1110 Rocket 4.2 19:04:55 10° S 19:09:54 49° ESE 19:14:54 10° NNE
USA 215 4.1 19:05:20 10° NE 19:11:39 53° NW 19:17:56 10° WSW
Cosmos 1818 4.2 19:06:23 10° NW 19:11:45 60° WSW 19:17:04 10° SSE
Okean 3 3.8 19:09:33 10° NNW 19:13:46 70° W 19:17:59 10° S
SL-4 R/B 2.4 19:10:46 10° SW 19:15:20 57° SE 19:19:54 10° ENE
Cosmos 1733 Rocket 4.2 19:14:39 10° SE 19:17:57 22° E 19:21:16 10° NE
Cosmos 1766 4.4 19:17:00 10° SE 19:19:53 21° E 19:22:47 10° NE
NOSS 0 Rocket 4.0 19:13:47 10° NNW 19:19:57 65° ENE 19:26:03 10° SE
Cosmos 1707 4.0 19:17:30 10° NNW 19:21:08 45° W 19:24:43 10° SSW
Resurs 01 Rocket 3.6 19:19:50 10° E 19:21:34 12° ENE 19:23:23 10° NE
Cosmos 1331 Rocket 4.0 19:17:50 10° S 19:22:52 59° ESE 19:27:57 10° NNE
Cosmos 2237 Rocket 2.6 19:18:52 10° N 19:24:13 42° ENE 19:29:31 10° SE
CZ-4 R/B 1.2 19:22:27 10° SSE 19:26:15 70° ENE 19:30:08 10° N
Cosmos 2061 Rocket 4.2 19:20:08 10° N 19:26:28 56° E 19:32:42 10° SSE
Resurs 1-3 4.5 19:22:57 10° SE 19:26:44 29° ENE 19:30:31 10° N
EXPRESS MD2 4.1 19:25:25 10° W 19:27:10 21° SW 19:29:01 10° SSE
Cosmos 1725 Rocket 4.0 19:21:58 10° N 19:28:07 66° E 19:34:17 10° SSE
MOS 1-B 4.4 19:22:22 10° SSE 19:28:10 89° ENE 19:34:00 10° NNW
Cosmos 1452 Rocket 3.7 19:24:39 10° SSW 19:29:55 80° WNW 19:35:13 10° NNE
Cosmos 1805 3.1 19:26:18 10° S 19:30:05 76° E 19:33:54 10° N
Feng Yun 1-1 Rocket 4.3 19:25:06 10° SSE 19:30:33 62° ENE 19:36:10 10° N
YAOGAN 1 3.4 19:29:19 10° S 19:33:31 54° W 19:37:46 10° NNW
USA 281 3.7 19:27:53 10° NNE 19:34:23 65° WNW 19:40:50 10° SW
Cosmos 968 Rocket 4.4 19:31:00 10° N 19:35:29 29° ENE 19:38:31 17° ESE
Delta 2 Rocket 3.9 19:33:28 10° WSW 19:37:20 39° S 19:39:38 18° SE
CZ-4B R/B 3.5 19:33:04 10° S 19:38:44 77° WSW 19:44:23 10° NNW
NOSS 3-4 (A) 3.4 19:34:51 10° SSW 19:40:12 50° ESE 19:45:53 10° NE
Cosmos 2219 Rocket 4.1 19:35:22 10° NW 19:40:17 31° WSW 19:45:10 10° SSW
NOSS 3-4 (C) 3.4 19:35:01 10° S 19:40:20 49° ESE 19:45:59 10° NE
Cosmos 1733 3.8 19:37:15 10° SSW 19:40:56 58° W 19:44:40 10° N
CSL-04 Debris 4.4 19:37:26 10° SE 19:42:39 52° ENE 19:47:56 10° N
FALCON 9 R/B 4.3 19:07:47 10° WSW 19:43:19 69° S 19:50:25 19° ESE
USA 267 3.3 19:38:54 13° SE 19:44:54 81° NE 19:51:29 10° NW
IGS 5A 3.4 19:41:04 10° SSE 19:45:11 86° WSW 19:49:20 10° NNW
Cosmos 1980 3.7 19:40:53 10° NNW 19:46:34 69° ENE 19:51:50 12° SSE
Meteor 2-10 4.3 19:42:54 10° SSW 19:47:53 69° W 19:52:59 10° N
Okean-O 3.3 19:46:16 20° SE 19:48:45 35° ENE 19:52:48 10° N
Okean O Rocket 1.7 19:45:25 10° S 19:49:48 78° WSW 19:54:13 10° NNW
Cosmos 1741 Rocket 4.0 19:45:41 10° NNW 19:50:55 87° WSW 19:56:07 10° SSE
Lacrosse 5 rocket 3.0 19:47:56 10° WSW 19:51:54 34° NW 19:55:42 10° NNE
Cosmos 2016 Rocket 4.2 19:48:49 10° NNW 19:54:55 72° W 20:01:02 10° S
Cosmos 2221 Rocket 4.2 19:51:30 10° N 19:55:32 34° ENE 19:56:56 27° ESE
Okean 2 3.6 19:52:14 10° NNW 19:56:18 69° W 20:00:21 10° S
CZ-4C R/B 4.1 19:50:52 10° NNW 19:56:41 26° NE 20:00:55 17° E
Cosmos 2297 Rocket 2.5 19:54:55 10° SSW 20:00:32 69° WNW 20:06:11 10° NNE
CENTAUR R/B 3.9 19:52:37 10° NW 20:00:55 57° WSW 20:09:43 10° SSE
SJ-6B 2.8 19:57:24 10° S 20:01:18 80° WSW 20:05:09 10° NNW
Cosmos 1271 Rocket 2.6 19:58:07 10° S 20:01:48 55° E 20:05:28 10° NNE
Cosmos 1726 4.0 20:04:43 10° SW 20:07:51 31° WNW 20:11:02 10° NNW
Cosmos 1447 Rocket 4.4 20:02:37 10° S 20:08:48 74° E 20:14:58 10° N
Iridium 4 Rocket 3.7 20:04:46 10° NNW 20:08:49 54° W 20:12:59 10° SSW
Cosmos 2082 4.2 20:04:17 10° SSE 20:09:16 34° ESE 20:14:16 10° NE
ISS -1.7 20:07:25 10° NNW 20:09:45 17° NNE 20:10:26 16° NNE
Cosmos 1302 Rocket 3.9 20:05:19 10° SSW 20:10:34 76° ESE 20:15:53 10° NNE
SL-14 R/B 4.3 20:10:35 10° NNW 20:14:14 44° W 20:17:53 10° SSW
Cosmos 2219 3.1 20:09:43 10° SSW 20:15:16 70° ESE 20:20:53 10° NNE
NOSS 3-2 (C) 4.2 20:08:16 10° NW 20:16:04 81° WSW 20:23:06 18° SSE
USA 186 2.5 20:14:35 21° SSW 20:16:22 49° W 20:19:25 10° NNW
Cosmos 2227 Rocket 2.2 20:11:18 10° SSW 20:16:58 83° WNW 20:22:40 10° NNE
Cosmos 1470 3.4 20:17:56 37° ENE 20:17:56 37° ENE 20:20:47 10° NNE
BlueWalker 3 2.1 20:25:45 10° WSW 20:29:38 70° NW 20:30:39 46° NNE
IRS-1C Rocket 4.0 20:27:25 34° SSE 20:29:44 78° ENE 20:35:01 10° N
Geosat 4.4 20:29:29 42° ENE 20:30:07 44° ENE 20:34:53 10° NNW
USA 238 DEB 4.0 20:22:43 10° NW 20:30:10 81° WSW 20:34:51 27° SSE
USA 238 4.0 20:22:49 10° NW 20:30:17 82° WSW 20:34:54 28° SSE
Meteor 1-12 Rocket 4.1 20:30:40 10° S 20:36:28 84° E 20:42:12 10° N
SL-16 R/B 2.3 20:31:13 10° NNW 20:36:48 52° ENE 20:37:33 49° E
Atlas Centaur 2 3.6 20:33:32 10° SSW 20:35:39 19° S 20:35:39 19° S
Cosmos 1513 Rocket 4.4 20:36:36 10° N 20:42:40 67° E 20:44:15 49° SE
H-2A R/B 4.3 20:44:38 22° NNE 20:44:38 22° NNE 20:46:45 10° N
CSL-04 Rocket 4.4 20:38:01 12° S 20:43:03 52° W 20:48:27 10° NNW
Terra 4.0 20:48:26 13° NE 20:48:26 13° NE 20:49:23 10° NNE
Cosmos 1992 Rocket 3.8 20:47:40 57° S 20:48:42 76° ESE 20:53:54 10° NNE
Meteor 2-5 Rocket 3.7 20:47:50 10° N 20:53:44 76° E 20:54:32 65° SE
SL-4 R/B 3.7 20:50:35 10° W 20:54:53 35° NNW 20:56:45 25° NNE
Resurs 01 Rocket 1.8 20:57:22 64° WSW 20:57:28 65° W 21:01:52 10° NNW
Cosmos 1674 Rocket 4.0 20:54:29 10° NNW 20:58:43 55° W 20:58:53 55° WSW
CARTOSAT-1 4.3 21:00:14 47° N 21:00:14 47° N 21:03:21 10° N
Cosmos 2263 Rocket 3.8 21:02:47 22° NE 21:02:47 22° NE 21:04:40 10° NNE
IRS-1A Rocket 4.2 21:03:15 75° SE 21:03:43 81° ENE 21:09:34 10° NNW
Cosmos 2237 Rocket 4.0 21:03:24 10° NW 21:08:00 26° WSW 21:11:34 14° SSW
MOS 1 4.3 21:07:30 66° SSW 21:08:17 77° WSW 21:14:01 10° NNW
Cosmos 2034 Rocket 4.1 21:04:24 10° N 21:09:53 59° NE 21:09:53 59° NE
SPOT 1/Viking Rocket 4.5 21:10:45 34° SW 21:12:20 44° W 21:17:19 10° NNW
SPOT 5 4.4 21:34:11 29° N 21:34:11 29° N 21:36:37 10° N
Lacrosse 5 rocket 4.4 21:31:18 10° NNW 21:31:48 10° NNW 21:32:17 10° N
SJ 16-02 3.3 21:28:09 10° NNW 21:30:05 25° NNW 21:30:05 25° NNW
Ariane Rocket 4.1 21:39:24 41° NNW 21:39:24 41° NNW 21:42:40 10° NNW
Cosmos 1943 4.5 21:34:17 10° NNW 21:37:36 32° N 21:37:36 32° N
CZ-4C R/B 2.9 21:38:35 10° NW 21:46:05 87° NE 21:46:05 87° NE
ATLAS 3B R/B 4.2 21:42:12 10° NNW 21:48:34 28° NE 21:48:41 28° NE
ADEOS Rocket 3.9 22:16:30 51° NW 22:16:30 51° NW 22:21:45 10° NNW
SL-16 R/B 4.3 22:16:17 10° NW 22:19:28 20° W 22:19:28 20° W
Terra 4.5 22:27:12 16° NNW 22:27:12 16° NNW 22:28:11 10° NNW
Cosmos 2344 4.5 22:30:43 10° NNW 22:38:56 55° NE 22:38:56 55° NE
Cosmos 2263 Rocket 4.4 22:44:18 20° NW 22:44:18 20° NW 22:47:39 10° N
ATLAS 2AS CENTAUR R/B 4.2 23:06:05 32° N 23:06:05 32° N 23:10:12 10° NNE
ATLAS 3B R/B 4.4 23:32:28 10° NW 23:35:56 30° NW 23:35:56 30° NW
